GW6494 Weather Reports


time (UTC)temp
C
wind
direction
speed
KPH
gust
KPH
rain 1hr
cm
rain 24hr
cm
rain mn
cm
humidity
%
barometer
mb
20260906035951 29 21 1.6 6.4 0.00 0.05 0.05 70 1014.4
20260906035446 28 356 1.6 3.2 0.00 0.05 0.05 71 1014.4
20260906034937 28 2 1.6 4.8 0.00 0.05 0.05 72 1014.3
20260906034437 28 8 1.6 8.0 0.00 0.05 0.05 71 1014.2
20260906033932 28 318 3.2 3.2 0.00 0.05 0.05 73 1014.1
20260906033432 28 342 1.6 3.2 0.00 0.05 0.05 71 1014.2
20260906032928 28 11 0.0 3.2 0.00 0.05 0.05 72 1014.2
20260906032425 28 6 0.0 3.2 0.00 0.05 0.05 70 1014.3
20260906031924 28 10 0.0 3.2 0.00 0.05 0.05 69 1014.2
20260906031420 28 355 1.6 3.2 0.00 0.05 0.05 70 1014.0
20260906030915 29 345 0.0 1.6 0.00 0.05 0.05 69 1014.1
20260906030410 29 321 1.6 3.2 0.00 0.05 0.05 70 1014.0
20260906025904 29 30 0.0 3.2 0.00 0.05 0.05 68 1013.9
20260906025359 29 9 3.2 3.2 0.00 0.05 0.05 70 1013.9
20260906024857 28 31 0.0 4.8 0.00 0.05 0.05 72 1013.8
20260906024357 28 348 0.0 0.0 0.00 0.05 0.05 71 1013.6
20260906023852 28 12 1.6 1.6 0.00 0.05 0.05 74 1013.7
20260906023348 29 328 0.0 1.6 0.00 0.05 0.05 72 1013.7
20260906022848 29 315 0.0 1.6 0.00 0.05 0.05 73 1013.5
20260906022343 29 297 0.0 1.6 0.00 0.05 0.05 74 1013.4
20260906021839 30 312 0.0 1.6 0.00 0.05 0.05 72 1013.5
20260906021338 30 346 0.0 1.6 0.00 0.05 0.05 71 1013.2
20260906020833 30 15 0.0 1.6 0.00 0.05 0.05 67 1013.4
20260906020333 30 311 0.0 1.6 0.00 0.05 0.05 66 1013.1
20260906015828 31 335 0.0 3.2 0.00 0.05 0.05 64 1013.1
20260906015327 31 319 0.0 3.2 0.00 0.05 0.05 61 1013.2
20260906014826 31 317 1.6 3.2 0.00 0.05 0.05 57 1013.0
20260906014322 32 49 4.8 4.8 0.00 0.05 0.05 55 1012.9
20260906013818 32 37 3.2 6.4 0.00 0.05 0.05 55 1012.9
20260906013313 32 20 1.6 8.0 0.00 0.05 0.05 55 1012.8
20260906012808 32 0 0.0 4.8 0.00 0.05 0.05 55 1013.1
20260906012306 32 319 0.0 3.2 0.00 0.05 0.05 55 1012.8
20260906011758 32 321 1.6 3.2 0.00 0.05 0.05 54 1012.9
20260906011258 32 22 3.2 4.8 0.00 0.05 0.05 53 1012.9
20260906010754 33 344 1.6 4.8 0.00 0.05 0.05 52 1012.8
20260906010250 33 57 1.6 6.4 0.00 0.05 0.05 52 1012.7
20260906005745 33 69 3.2 6.4 0.00 0.05 0.05 51 1012.5
20260906005244 33 48 4.8 8.0 0.00 0.05 0.05 50 1012.4
20260906004743 33 17 3.2 9.7 0.00 0.05 0.05 50 1012.5
20260906004239 34 18 3.2 12.9 0.00 0.05 0.05 49 1012.4
20260906003739 34 44 4.8 11.3 0.00 0.05 0.05 48 1012.6
20260906003234 35 40 6.4 14.5 0.00 0.05 0.05 47 1012.4
20260906002734 35 66 6.4 12.9 0.00 0.05 0.05 47 1012.5
20260906002234 35 344 4.8 9.7 0.00 0.05 0.05 46 1012.3
20260906001730 35 20 4.8 6.4 0.00 0.05 0.05 46 1012.5
20260906001225 36 29 0.0 3.2 0.00 0.05 0.05 48 1012.4
20260906000720 36 0 1.6 4.8 0.00 0.05 0.05 47 1012.3
20260906000215 36 324 0.0 4.8 0.00 0.05 0.05 46 1012.4
20260905235715 36 325 3.2 4.8 0.00 0.05 0.05 47 1012.2
20260905235210 36 295 4.8 6.4 0.00 0.05 0.05 47 1012.3
20260905234705 36 328 3.2 6.4 0.00 0.05 0.05 46 1012.2
20260905234200 36 257 3.2 8.0 0.00 0.05 0.05 46 1012.4
20260905233656 36 260 8.0 8.0 0.00 0.05 0.05 46 1012.3
20260905233155 36 262 8.0 9.7 0.00 0.05 0.05 46 1012.6
20260905232650 36 258 6.4 8.0 0.00 0.05 0.05 46 1012.5
20260905232146 36 264 3.2 8.0 0.00 0.05 0.05 47 1012.5
20260905231641 36 306 3.2 6.4 0.00 0.05 0.05 47 1012.5
20260905231137 36 325 3.2 6.4 0.00 0.05 0.05 46 1012.4
20260905230633 37 291 9.7 9.7 0.00 0.05 0.05 45 1012.6
20260905230131 37 274 6.4 12.9 0.00 0.05 0.05 43 1012.6
20260905225630 37 311 4.8 8.0 0.00 0.05 0.05 43 1012.5
20260905225125 37 295 6.4 11.3 0.00 0.05 0.05 43 1012.5
20260905224625 37 299 4.8 4.8 0.00 0.05 0.05 44 1012.6
20260905224125 37 303 9.7 14.5 0.00 0.05 0.05 42 1012.3
20260905223622 37 305 4.8 11.3 0.00 0.05 0.05 43 1012.4
20260905223118 37 287 6.4 6.4 0.00 0.05 0.05 43 1012.5
20260905222618 37 314 6.4 8.0 0.00 0.05 0.05 41 1012.3
20260905222113 37 288 8.0 8.0 0.00 0.05 0.05 40 1012.4
20260905221609 36 250 4.8 8.0 0.00 0.05 0.05 41 1012.6
20260905221106 37 266 9.7 11.3 0.00 0.05 0.05 40 1012.6
20260905220601 37 304 9.7 19.3 0.00 0.05 0.05 39 1012.6
20260905220057 37 337 9.7 14.5 0.00 0.05 0.05 39 1012.6
20260905215556 37 265 8.0 14.5 0.00 0.05 0.05 38 1012.7
20260905215052 37 322 8.0 16.1 0.00 0.05 0.05 36 1012.5
20260905214549 37 340 3.2 6.4 0.00 0.05 0.05 39 1012.5
20260905214049 37 266 6.4 8.0 0.00 0.05 0.05 38 1012.5
20260905213544 37 261 8.0 9.7 0.00 0.05 0.05 39 1012.6
20260905213040 37 267 6.4 8.0 0.00 0.05 0.05 41 1012.5
20260905212539 36 262 4.8 12.9 0.00 0.05 0.05 43 1012.5
20260905212039 36 242 4.8 11.3 0.00 0.05 0.05 45 1012.6
20260905211534 36 266 12.9 19.3 0.00 0.05 0.05 44 1012.6
20260905211030 36 311 6.4 9.7 0.00 0.05 0.05 44 1012.6
20260905210526 36 263 11.3 17.7 0.00 0.05 0.05 44 1012.7
20260905210025 36 288 6.4 14.5 0.00 0.05 0.05 44 1012.7
20260905205520 36 281 22.5 32.2 0.00 0.05 0.05 43 1012.7
20260905205019 37 311 9.7 9.7 0.00 0.05 0.05 39 1012.7
20260905204514 37 281 3.2 9.7 0.00 0.05 0.05 38 1012.8
20260905204009 37 276 8.0 9.7 0.00 0.05 0.05 37 1012.8
20260905203504 38 315 16.1 20.9 0.00 0.05 0.05 37 1012.8
20260905202959 38 299 14.5 22.5 0.00 0.05 0.05 36 1012.8
20260905202454 38 327 8.0 20.9 0.00 0.05 0.05 36 1012.9
20260905201949 38 265 11.3 17.7 0.00 0.05 0.05 35 1012.7
20260905201444 38 260 6.4 9.7 0.00 0.05 0.05 34 1012.8
20260905200944 38 267 6.4 9.7 0.00 0.05 0.05 35 1012.9
20260905200440 38 266 6.4 17.7 0.00 0.05 0.05 35 1013.1
20260905195938 38 275 12.9 20.9 0.00 0.05 0.05 35 1013.1
20260905195433 38 292 3.2 11.3 0.00 0.05 0.05 37 1013.1
20260905194929 38 292 8.0 8.0 0.00 0.05 0.05 36 1013.1
20260905194429 37 324 9.7 11.3 0.00 0.05 0.05 38 1013.1
20260905193928 38 263 9.7 16.1 0.00 0.05 0.05 37 1013.4
20260905193423 38 269 9.7 16.1 0.00 0.05 0.05 39 1013.4
20260905192918 38 249 8.0 17.7 0.00 0.05 0.05 38 1013.4
20260905192414 38 261 11.3 16.1 0.00 0.05 0.05 38 1013.5
20260905191914 38 247 4.8 14.5 0.00 0.05 0.05 38 1013.5
20260905191413 37 315 11.3 19.3 0.00 0.05 0.05 39 1013.7
20260905190908 38 344 4.8 20.9 0.00 0.05 0.05 39 1013.8
20260905190406 38 347 11.3 20.9 0.00 0.05 0.05 38 1013.7
20260905185905 37 244 14.5 14.5 0.00 0.05 0.05 38 1013.6
20260905185400 37 293 9.7 20.9 0.00 0.05 0.05 38 1013.9
20260905184859 37 287 12.9 19.3 0.00 0.05 0.05 39 1013.9
20260905184358 37 314 6.4 24.1 0.00 0.05 0.05 39 1013.8
20260905183856 37 268 8.0 17.7 0.00 0.05 0.05 39 1013.8
20260905183352 37 265 8.0 16.1 0.00 0.05 0.05 39 1014.0
20260905182847 37 275 12.9 20.9 0.00 0.05 0.05 41 1014.1
20260905182347 37 0 4.8 17.7 0.00 0.05 0.05 41 1014.0
20260905181842 37 285 6.4 12.9 0.00 0.05 0.05 41 1014.1
20260905181342 37 309 14.5 16.1 0.00 0.05 0.05 42 1014.3
20260905180841 37 295 8.0 11.3 0.00 0.05 0.05 44 1014.3
20260905180336 37 260 8.0 14.5 0.00 0.05 0.05 43 1014.4
20260905175832 37 299 8.0 17.7 0.00 0.05 0.05 43 1014.4
20260905175331 37 290 6.4 16.1 0.00 0.05 0.05 43 1014.4
20260905174827 37 291 4.8 14.5 0.00 0.05 0.05 42 1014.3
20260905174323 36 244 4.8 9.7 0.00 0.05 0.05 44 1014.4
20260905173818 36 349 9.7 14.5 0.00 0.05 0.05 45 1014.5
20260905173314 36 273 9.7 14.5 0.00 0.05 0.05 45 1014.7
20260905172814 36 293 8.0 11.3 0.00 0.05 0.05 46 1014.6
20260905172312 36 309 9.7 22.5 0.00 0.05 0.05 46 1014.6
20260905171808 36 297 16.1 16.1 0.00 0.05 0.05 45 1014.9
20260905171305 35 249 6.4 12.9 0.00 0.05 0.05 48 1014.7
20260905170801 35 254 6.4 16.1 0.00 0.05 0.05 49 1014.8
20260905170256 35 299 1.6 12.9 0.00 0.05 0.05 48 1014.8
20260905165755 35 298 9.7 11.3 0.00 0.05 0.05 48 1015.0
20260905165251 35 285 8.0 11.3 0.00 0.05 0.05 48 1015.1
20260905164746 35 299 4.8 16.1 0.00 0.05 0.05 49 1015.2
20260905164246 35 303 11.3 17.7 0.00 0.05 0.05 49 1015.4
20260905163741 35 300 11.3 16.1 0.00 0.05 0.05 49 1015.3
20260905163238 35 318 9.7 12.9 0.00 0.05 0.05 50 1015.3
20260905162734 35 293 11.3 14.5 0.00 0.05 0.05 51 1015.6
20260905162233 35 271 3.2 11.3 0.00 0.05 0.05 51 1015.4
20260905161728 34 253 9.7 12.9 0.00 0.05 0.05 51 1015.4
20260905161226 34 279 8.0 14.5 0.00 0.05 0.05 52 1015.4
20260905160725 34 333 9.7 11.3 0.00 0.05 0.05 53 1015.4
20260905160220 33 335 14.5 16.1 0.00 0.05 0.05 53 1015.5
20260905155720 33 328 6.4 11.3 0.00 0.05 0.05 53 1015.3
20260905155219 33 338 6.4 9.7 0.00 0.05 0.05 54 1015.4
20260905154713 33 337 8.0 9.7 0.00 0.05 0.05 54 1015.6
20260905154209 33 285 6.4 14.5 0.00 0.05 0.05 54 1015.5
20260905153704 33 308 9.7 16.1 0.00 0.05 0.05 54 1015.5
20260905153200 32 278 11.3 17.7 0.00 0.05 0.05 55 1015.6
20260905152654 33 327 16.1 19.3 0.00 0.05 0.05 55 1015.4
20260905152149 32 336 11.3 16.1 0.00 0.05 0.05 55 1015.7
20260905151644 32 272 9.7 12.9 0.00 0.05 0.05 55 1015.6
20260905151139 32 315 12.9 14.5 0.00 0.05 0.05 56 1015.5
20260905150635 32 334 9.7 12.9 0.00 0.05 0.05 57 1015.6
20260905150133 32 329 16.1 17.7 0.00 0.05 0.05 55 1015.4
20260905145631 32 308 6.4 8.0 0.00 0.05 0.05 57 1015.4
20260905145131 32 269 3.2 6.4 0.00 0.05 0.05 56 1015.6
20260905144626 32 278 8.0 9.7 0.00 0.05 0.05 57 1015.6
20260905144125 32 288 6.4 11.3 0.00 0.05 0.05 58 1015.3
20260905143620 31 239 9.7 17.7 0.00 0.05 0.05 57 1015.6
20260905143114 31 263 9.7 17.7 0.00 0.05 0.05 57 1015.4
20260905142613 31 225 8.0 12.9 0.00 0.05 0.05 58 1015.6
20260905142113 31 253 11.3 19.3 0.00 0.05 0.05 58 1015.4
20260905141613 31 296 4.8 8.0 0.00 0.05 0.05 61 1015.4
20260905141110 31 317 6.4 8.0 0.00 0.05 0.05 62 1015.5
20260905140610 31 269 8.0 11.3 0.00 0.05 0.05 62 1015.5
20260905140108 31 296 3.2 3.2 0.00 0.05 0.05 64 1015.5
20260905135604 31 227 0.0 3.2 0.00 0.05 0.05 64 1015.5
20260905135059 31 331 0.0 4.8 0.00 0.05 0.05 64 1015.3
20260905134554 30 351 0.0 3.2 0.00 0.05 0.05 66 1015.3
20260905134052 30 304 1.6 3.2 0.00 0.05 0.05 68 1015.2
20260905133549 30 63 0.0 1.6 0.00 0.05 0.05 69 1015.2
20260905133048 30 292 1.6 3.2 0.00 0.05 0.05 70 1015.2
20260905132548 29 46 3.2 3.2 0.00 0.05 0.05 71 1015.3
20260905132043 28 315 3.2 4.8 0.00 0.05 0.05 71 1015.1
20260905131538 28 290 3.2 3.2 0.00 0.05 0.05 72 1015.2
20260905131033 28 345 3.2 3.2 0.00 0.05 0.05 75 1014.9
20260905130532 28 342 3.2 3.2 0.00 0.05 0.05 75 1015.4
20260905130028 28 60 3.2 3.2 0.00 0.05 0.05 75 1015.2
20260905125527 28 66 0.0 3.2 0.00 0.05 0.05 75 1015.1
20260905125023 27 42 0.0 3.2 0.00 0.05 0.05 76 1015.1
20260905124519 27 23 1.6 3.2 0.00 0.05 0.05 77 1014.9
20260905124015 27 97 4.8 6.4 0.00 0.05 0.05 78 1015.1
20260905123511 27 5 0.0 3.2 0.00 0.05 0.05 80 1015.1
20260905123008 26 14 1.6 3.2 0.00 0.05 0.05 80 1014.8
20260905122507 26 60 0.0 3.2 0.00 0.05 0.05 81 1015.1
20260905122002 26 27 3.2 3.2 0.00 0.05 0.05 81 1014.9
20260905121457 25 356 3.2 3.2 0.00 0.05 0.05 83 1014.9
20260905120956 25 356 0.0 3.2 0.00 0.05 0.05 83 1014.8
20260905120450 25 299 0.0 3.2 0.00 0.05 0.05 83 1014.8
20260905115946 25 309 1.6 3.2 0.00 0.05 0.05 83 1014.8
20260905115445 25 23 0.0 3.2 0.00 0.05 0.05 83 1014.8
20260905114940 25 58 0.0 4.8 0.00 0.05 0.05 84 1014.5
20260905114440 25 15 3.2 3.2 0.00 0.05 0.05 84 1014.5
20260905113938 25 41 0.0 3.2 0.00 0.05 0.05 85 1014.4
20260905113434 25 22 3.2 3.2 0.00 0.05 0.05 84 1014.7
20260905112929 25 79 0.0 3.2 0.00 0.05 0.05 84 1014.5
20260905112424 25 96 0.0 3.2 0.00 0.05 0.05 84 1014.5
20260905111920 25 59 3.2 3.2 0.00 0.05 0.05 85 1014.6
20260905111419 25 83 1.6 3.2 0.00 0.05 0.05 87 1014.4
20260905110914 25 74 1.6 4.8 0.05 0.05 0.05 88 1014.4
20260905110408 25 348 3.2 3.2 0.05 0.05 0.05 88 1014.3
20260905105903 25 344 1.6 3.2 0.00 0.03 0.03 87 1014.2
20260905105403 25 333 1.6 3.2 0.00 0.03 0.03 87 1014.2
20260905104902 25 313 3.2 3.2 0.00 0.03 0.03 86 1014.2
20260905104359 25 302 3.2 3.2 0.00 0.03 0.03 85 1014.3
20260905103858 26 326 3.2 3.2 0.00 0.03 0.03 83 1014.3
20260905103354 25 60 3.2 3.2 0.00 0.03 0.03 84 1014.3
20260905102849 25 56 4.8 4.8 0.00 0.03 0.03 85 1014.3
20260905102346 25 23 3.2 3.2 0.00 0.03 0.03 85 1014.4
20260905101846 25 14 1.6 3.2 0.00 0.03 0.03 84 1014.3
20260905101344 26 332 3.2 3.2 0.00 0.03 0.03 83 1014.5
20260905100839 26 18 3.2 3.2 0.00 0.03 0.03 83 1014.2
20260905100335 26 38 0.0 3.2 0.00 0.03 0.03 82 1014.4
20260905095835 26 6 1.6 3.2 0.00 0.03 0.03 82 1014.3
20260905095334 26 5 1.6 3.2 0.00 0.03 0.03 82 1014.5
20260905094829 26 71 3.2 4.8 0.00 0.03 0.03 82 1014.4
20260905094325 26 64 3.2 4.8 0.00 0.03 0.03 83 1014.3
20260905093823 25 64 4.8 4.8 0.00 0.03 0.03 84 1014.4
20260905093320 25 45 3.2 4.8 0.00 0.03 0.03 85 1014.2
20260905092815 25 31 4.8 4.8 0.00 0.03 0.03 86 1014.3
20260905092315 25 329 3.2 3.2 0.00 0.03 0.03 86 1014.4
20260905091810 25 307 1.6 3.2 0.05 0.03 0.03 85 1014.3
20260905091310 25 328 1.6 3.2 0.00 0.03 0.03 84 1014.5
20260905090809 25 14 0.0 1.6 0.00 0.03 0.03 85 1014.3
20260905090305 25 8 3.2 3.2 0.00 0.03 0.03 85 1014.5
20260905085804 25 336 1.6 3.2 0.00 0.03 0.03 85 1014.1
20260905085306 25 338 1.6 3.2 0.00 0.03 0.03 84 1014.2
20260905084759 26 341 1.6 3.2 0.05 0.03 0.03 83 1014.4
20260905084259 26 0 0.0 3.2 0.05 0.03 0.03 83 1014.3
20260905083754 26 29 1.6 3.2 0.00 0.00 0.00 83 1014.3
20260905083250 26 23 0.0 1.6 0.00 0.00 0.00 82 1014.7
20260905082745 26 10 1.6 3.2 0.00 0.00 0.00 82 1014.5
20260905082242 26 18 1.6 3.2 0.00 0.00 0.00 82 1014.5
20260905081741 26 342 1.6 3.2 0.00 0.00 0.00 82 1014.6
20260905081237 26 12 1.6 3.2 0.00 0.00 0.00 81 1014.6
20260905080737 26 29 0.0 3.2 0.00 0.00 0.00 81 1014.4
20260905080236 26 9 1.6 3.2 0.00 0.00 0.00 80 1014.7
20260905075735 26 9 1.6 3.2 0.00 0.00 0.00 80 1014.6
20260905075235 26 39 3.2 4.8 0.05 0.00 0.00 80 1014.7
20260905074733 26 12 3.2 4.8 0.05 0.00 0.00 79 1014.5
20260905074230 26 14 0.0 3.2 0.00 0.00 0.00 80 1014.4
20260905073725 26 30 3.2 4.8 0.00 0.00 0.00 81 1014.6
20260905073220 26 38 3.2 3.2 0.00 0.00 0.00 81 1014.6
20260905072720 26 49 4.8 4.8 0.00 0.00 0.00 83 1014.6
20260905072215 25 19 1.6 3.2 0.00 0.00 0.00 84 1014.6
20260905071712 26 13 0.0 1.6 0.00 0.00 0.00 84 1014.7
20260905071208 26 9 0.0 3.2 0.00 0.00 0.00 84 1014.9
20260905070702 26 334 3.2 3.2 0.00 0.00 0.00 84 1014.8
20260905070158 26 322 3.2 3.2 0.00 0.00 0.00 82 1014.8
20260905065657 26 323 3.2 3.2 0.00 0.00 0.00 80 1014.8
20260905065151 26 343 0.0 3.2 0.00 0.00 0.00 79 1014.9
20260905064646 26 3 0.0 1.6 0.00 0.00 0.00 78 1014.8
20260905064142 26 319 0.0 3.2 0.00 0.00 0.00 77 1014.8
20260905063640 27 14 0.0 1.6 0.00 0.00 0.00 76 1014.9
20260905063137 27 6 1.6 3.2 0.00 0.00 0.00 76 1014.9
20260905062632 27 11 1.6 3.2 0.00 0.00 0.00 76 1014.9
20260905062131 27 12 3.2 3.2 0.00 0.00 0.00 75 1015.0
20260905061626 27 17 3.2 3.2 0.00 0.00 0.00 74 1014.8
20260905061126 27 21 3.2 3.2 0.00 0.00 0.00 73 1015.0
20260905060622 27 40 3.2 3.2 0.00 0.00 0.00 72 1015.0
20260905060118 27 48 3.2 4.8 0.00 0.00 0.00 73 1014.9
20260905055616 27 30 3.2 3.2 0.00 0.00 0.00 73 1014.8
20260905055112 27 47 3.2 3.2 0.00 0.00 0.00 73 1015.0
20260905054608 27 13 3.2 3.2 0.00 0.00 0.00 72 1015.0
20260905054103 28 14 3.2 3.2 0.00 0.00 0.00 71 1015.0
20260905053602 28 34 3.2 4.8 0.00 0.00 0.00 71 1014.9
20260905053057 27 57 3.2 4.8 0.00 0.00 0.00 71 1014.8
20260905052557 27 23 3.2 3.2 0.00 0.00 0.00 72 1014.9
20260905052051 28 15 3.2 3.2 0.00 0.00 0.00 72 1014.9
20260905051547 28 32 3.2 3.2 0.00 0.00 0.00 71 1015.0
20260905051044 28 31 3.2 3.2 0.00 0.00 0.00 70 1015.0
20260905050540 28 20 1.6 3.2 0.00 0.00 0.00 69 1014.7
20260905050037 28 35 3.2 3.2 0.00 0.08 0.08 67 1015.0
20260905045531 28 20 1.6 3.2 0.00 0.08 0.08 68 1014.7
20260905045026 29 65 3.2 4.8 0.00 0.08 0.08 67 1014.9
20260905044526 29 78 3.2 3.2 0.00 0.08 0.08 67 1014.6
20260905044021 28 74 1.6 3.2 0.00 0.08 0.08 67 1014.8
20260905043520 29 65 1.6 3.2 0.00 0.08 0.08 67 1014.8
20260905043016 29 85 3.2 3.2 0.00 0.08 0.08 67 1014.8
20260905042514 28 53 3.2 3.2 0.00 0.08 0.08 68 1014.8
20260905042009 28 71 3.2 3.2 0.00 0.08 0.08 68 1014.8
20260905041505 28 43 0.0 1.6 0.00 0.08 0.08 68 1014.7
20260905041000 29 14 0.0 3.2 0.00 0.08 0.08 68 1014.7
20260905040459 29 71 0.0 3.2 0.00 0.08 0.08 68 1014.7